• In Russia
  • List of Countries
  • For 7 days
  • Water Temperature
  • Satellite Maps
  • Weather Map
  • Weather Widgets
  • user-avatar
    Login

    Hourly Weather Egilsstaðir

    Today, 24 March, Sunday

    Time Temperature Precipitation Wind Pressure Humidity
    00:00 -12°C° 1.2 mm 16 mps 653 mmHg 92%
    01:00 -13°C° 0 mm 14 mps 655 mmHg 90%
    02:00 -13°C° 0.4 mm 14 mps 655 mmHg 90%
    03:00 -14°C° 0.4 mm 14 mps 656 mmHg 90%
    04:00 -14°C° 0.4 mm 14 mps 656 mmHg 90%
    05:00 -14°C° 0.2 mm 13 mps 656 mmHg 90%
    06:00 -13°C° 0.2 mm 12 mps 657 mmHg 90%
    07:00 -14°C° 0.2 mm 11 mps 657 mmHg 90%
    08:00 -13°C° 0.1 mm 11 mps 657 mmHg 89%
    09:00 -13°C° 0.1 mm 10 mps 657 mmHg 88%
    10:00 -13°C° 0.1 mm 10 mps 658 mmHg 87%
    11:00 -12°C° 0.1 mm 9 mps 658 mmHg 86%
    12:00 -12°C° 0.1 mm 8 mps 658 mmHg 86%
    13:00 -11°C° 0.1 mm 8 mps 658 mmHg 85%
    14:00 -12°C° 0.1 mm 7 mps 659 mmHg 86%
    15:00 -12°C° 0.1 mm 7 mps 659 mmHg 87%
    16:00 -11°C° 0.1 mm 6 mps 659 mmHg 87%
    17:00 -12°C° 0.1 mm 5 mps 659 mmHg 90%
    18:00 -12°C° 0.1 mm 4 mps 659 mmHg 92%
    19:00 -13°C° 0.1 mm 3 mps 658 mmHg 94%
    20:00 -14°C° 0 mm 3 mps 659 mmHg 94%
    21:00 -14°C° 0 mm 2 mps 659 mmHg 95%
    22:00 -14°C° 0 mm 2 mps 659 mmHg 95%
    23:00 -14°C° 0 mm 2 mps 659 mmHg 95%

    Tomorrow, 25 March, Monday

    Time Temperature Precipitation Wind Pressure Humidity
    00:00 -15°C° 0 mm 2 mps 660 mmHg 95%
    01:00 -16°C° 0 mm 3 mps 660 mmHg 96%
    02:00 -15°C° 0 mm 3 mps 661 mmHg 96%
    03:00 -15°C° 0 mm 3 mps 661 mmHg 96%
    04:00 -15°C° 0 mm 3 mps 662 mmHg 95%
    05:00 -14°C° 0 mm 3 mps 662 mmHg 95%
    06:00 -14°C° 0 mm 3 mps 663 mmHg 95%
    07:00 -14°C° 0 mm 3 mps 663 mmHg 95%
    08:00 -12°C° 0.1 mm 4 mps 664 mmHg 93%
    09:00 -12°C° 0.1 mm 5 mps 664 mmHg 91%
    10:00 -11°C° 0.1 mm 6 mps 664 mmHg 89%
    11:00 -12°C° 0.4 mm 7 mps 664 mmHg 90%
    12:00 -12°C° 0.4 mm 7 mps 664 mmHg 91%
    13:00 -12°C° 0.4 mm 8 mps 664 mmHg 92%
    14:00 -12°C° 0.9 mm 9 mps 663 mmHg 92%
    15:00 -14°C° 0.9 mm 10 mps 663 mmHg 92%
    16:00 -14°C° 0.9 mm 11 mps 663 mmHg 93%
    17:00 -15°C° 0.3 mm 9 mps 663 mmHg 92%
    18:00 -15°C° 0.3 mm 7 mps 663 mmHg 92%
    19:00 -16°C° 0.3 mm 6 mps 663 mmHg 92%
    20:00 -17°C° 0.1 mm 5 mps 663 mmHg 92%
    21:00 -18°C° 0.1 mm 5 mps 664 mmHg 92%
    22:00 -18°C° 0.1 mm 4 mps 664 mmHg 93%
    23:00 -19°C° 0 mm 4 mps 664 mmHg 91%

    Day after tomorrow, 26 March, Tuesday

    Time Temperature Precipitation Wind Pressure Humidity
    00:00 -19°C° 0 mm 3 mps 665 mmHg 90%
    01:00 -22°C° 0 mm 3 mps 665 mmHg 88%
    02:00 -21°C° 0 mm 3 mps 665 mmHg 88%
    03:00 -19°C° 0 mm 2 mps 666 mmHg 88%
    04:00 -19°C° 0 mm 2 mps 666 mmHg 88%
    05:00 -19°C° 0 mm 2 mps 666 mmHg 88%
    06:00 -19°C° 0 mm 2 mps 666 mmHg 89%
    07:00 -17°C° 0 mm 1 mps 666 mmHg 89%
    08:00 -15°C° 0 mm 1 mps 666 mmHg 88%
    09:00 -14°C° 0 mm 1 mps 666 mmHg 86%
    10:00 -12°C° 0 mm 1 mps 666 mmHg 85%
    11:00 -13°C° 0 mm 2 mps 666 mmHg 82%
    12:00 -13°C° 0 mm 3 mps 665 mmHg 80%
    13:00 -13°C° 0 mm 3 mps 665 mmHg 78%
    14:00 -12°C° 0.1 mm 4 mps 664 mmHg 81%
    15:00 -12°C° 0.1 mm 4 mps 664 mmHg 83%
    16:00 -13°C° 0.1 mm 5 mps 663 mmHg 86%
    17:00 -12°C° 0.5 mm 4 mps 662 mmHg 89%
    18:00 -12°C° 0.5 mm 4 mps 662 mmHg 92%
    19:00 -12°C° 0.5 mm 4 mps 662 mmHg 95%
    20:00 -12°C° 0.1 mm 3 mps 662 mmHg 95%
    21:00 -12°C° 0.1 mm 3 mps 662 mmHg 95%
    22:00 -10°C° 0.1 mm 3 mps 662 mmHg 96%
    23:00 -10°C° 0.3 mm 3 mps 662 mmHg 96%

    27 March, Wednesday

    Time Temperature Precipitation Wind Pressure Humidity
    00:00 -8°C° 0.3 mm 2 mps 662 mmHg 96%
    01:00 -7°C° 0.3 mm 2 mps 663 mmHg 96%
    02:00 -8°C° 0.1 mm 4 mps 664 mmHg 95%
    03:00 -7°C° 0.1 mm 5 mps 665 mmHg 95%
    04:00 -5°C° 0.1 mm 6 mps 665 mmHg 94%
    05:00 -6°C° 0.1 mm 6 mps 666 mmHg 94%
    06:00 -6°C° 0.1 mm 6 mps 666 mmHg 94%
    07:00 -7°C° 0.1 mm 5 mps 667 mmHg 94%
    08:00 -7°C° 0.1 mm 5 mps 667 mmHg 92%
    09:00 -8°C° 0.1 mm 6 mps 668 mmHg 90%
    10:00 -6°C° 0.1 mm 6 mps 669 mmHg 88%
    11:00 -7°C° 0.1 mm 7 mps 669 mmHg 88%
    12:00 -7°C° 0.1 mm 7 mps 669 mmHg 88%
    13:00 -7°C° 0.1 mm 7 mps 669 mmHg 88%
    14:00 -7°C° 0.2 mm 7 mps 669 mmHg 90%
    15:00 -6°C° 0.2 mm 6 mps 669 mmHg 92%
    16:00 -5°C° 0.2 mm 6 mps 669 mmHg 93%
    17:00 -6°C° 0.2 mm 7 mps 669 mmHg 93%
    18:00 -6°C° 0.2 mm 9 mps 669 mmHg 93%
    19:00 -7°C° 0.2 mm 10 mps 668 mmHg 93%
    20:00 -8°C° 0.1 mm 9 mps 668 mmHg 93%
    21:00 -8°C° 0.1 mm 9 mps 668 mmHg 93%
    22:00 -7°C° 0.1 mm 8 mps 667 mmHg 93%
    23:00 -6°C° 0.1 mm 7 mps 667 mmHg 94%

    28 March, Thursday

    Time Temperature Precipitation Wind Pressure Humidity
    00:00 -5°C° 0.1 mm 6 mps 667 mmHg 95%
    01:00 -4°C° 0.1 mm 5 mps 666 mmHg 96%
    02:00 -4°C° 0.7 mm 7 mps 666 mmHg 96%
    03:00 -5°C° 0.7 mm 8 mps 665 mmHg 96%
    04:00 -5°C° 0.7 mm 10 mps 664 mmHg 95%
    05:00 -6°C° 0.9 mm 11 mps 664 mmHg 96%
    06:00 -6°C° 0.9 mm 13 mps 664 mmHg 96%
    07:00 -6°C° 0.9 mm 14 mps 664 mmHg 96%
    08:00 -6°C° 0.6 mm 14 mps 664 mmHg 96%
    09:00 -7°C° 0.6 mm 15 mps 664 mmHg 95%
    10:00 -8°C° 0.6 mm 15 mps 664 mmHg 94%
    11:00 -9°C° 0.4 mm 15 mps 665 mmHg 92%
    12:00 -10°C° 0.4 mm 15 mps 666 mmHg 90%
    13:00 -11°C° 0.4 mm 14 mps 667 mmHg 88%
    14:00 -11°C° 0.2 mm 14 mps 668 mmHg 88%
    15:00 -11°C° 0.2 mm 13 mps 669 mmHg 88%
    16:00 -11°C° 0.2 mm 12 mps 670 mmHg 88%
    17:00 -12°C° 0.1 mm 10 mps 670 mmHg 90%
    18:00 -11°C° 0.1 mm 8 mps 670 mmHg 91%
    19:00 -10°C° 0.1 mm 6 mps 670 mmHg 92%
    20:00 -11°C° 0 mm 5 mps 670 mmHg 93%
    21:00 -10°C° 0 mm 3 mps 669 mmHg 94%
    22:00 -10°C° 0 mm 2 mps 669 mmHg 96%
    23:00 -10°C° 0.1 mm 3 mps 669 mmHg 96%

    29 March, Friday

    Time Temperature Precipitation Wind Pressure Humidity
    00:00 -8°C° 0.1 mm 3 mps 669 mmHg 96%
    01:00 -8°C° 0.1 mm 4 mps 669 mmHg 96%
    02:00 -6°C° 0.5 mm 6 mps 668 mmHg 96%
    03:00 -6°C° 0.5 mm 8 mps 668 mmHg 96%
    04:00 -6°C° 0.5 mm 11 mps 668 mmHg 97%
    05:00 -5°C° 0.3 mm 10 mps 667 mmHg 97%
    06:00 -5°C° 0.3 mm 10 mps 667 mmHg 98%
    07:00 -4°C° 0.3 mm 10 mps 666 mmHg 98%
    08:00 -4°C° 0.2 mm 10 mps 665 mmHg 97%
    09:00 -4°C° 0.2 mm 10 mps 665 mmHg 96%
    10:00 -4°C° 0.2 mm 9 mps 664 mmHg 95%
    11:00 -4°C° 0.4 mm 11 mps 664 mmHg 95%
    12:00 -5°C° 0.4 mm 12 mps 663 mmHg 96%
    13:00 -6°C° 0.4 mm 13 mps 663 mmHg 96%
    14:00 -6°C° 1.3 mm 13 mps 662 mmHg 96%
    15:00 -6°C° 1.3 mm 14 mps 662 mmHg 96%
    16:00 -8°C° 1.3 mm 14 mps 662 mmHg 96%
    17:00 -8°C° 0.3 mm 12 mps 663 mmHg 94%
    18:00 -9°C° 0.3 mm 10 mps 663 mmHg 91%
    19:00 -11°C° 0.3 mm 9 mps 663 mmHg 89%
    20:00 -11°C° 0 mm 8 mps 663 mmHg 89%
    21:00 -12°C° 0 mm 7 mps 663 mmHg 90%
    22:00 -13°C° 0 mm 7 mps 663 mmHg 90%
    23:00 -11°C° 0.1 mm 6 mps 663 mmHg 91%
    Show more